2022�N�x�@��C������Ԃɂ�鑪�茋��,,,,,,,,,,,,,,,
,,,,,,,,,,,,,,,
�P�@����n�_,,,,,,,,,,,,,,,
�������t�؁i�������厚�t�؎���v511-1),,,,,,,,,,,,,,,
,,,,,,,,,,,,,,,
�Q�@���Ԓl�i�m��l�j��2022�N7��5���`2022�N7��27��,,,,,,,,,,,,,,,
,,,,,,,,,,,,,,,
,�N,��,��,��,SO2,SPM,Ox,CO,NO,NO2,PM2.5,���x,���x,����,����
,,,,,ppm,mg/m3,ppm,ppm,ppm,ppm,��g/m3,��,%,�ő�,m/s
H04,2022,7,5,1,***,0.009,0.004,***,***,***,3,25.1,98.1,E,0.8
H04,2022,7,5,2,0,0.009,0.002,0.1,0.001,0.005,2,24.8,97.3,ESE,0.9
H04,2022,7,5,3,0,0.008,0.004,0.1,0.001,0.004,1,24.4,98.5,ESE,1.5
H04,2022,7,5,4,0.001,0.005,0.01,0.1,0,0.004,1,24.3,99.1,SE,1
H04,2022,7,5,5,0.001,0.003,0.008,0.1,0,0.005,1,24.3,99,SE,1.3
H04,2022,7,5,6,0,0.003,0.006,0.1,0.001,0.005,2,24.5,98.5,SE,0.9
H04,2022,7,5,7,0,0.002,0.006,0.1,0.002,0.006,1,24.8,95.4,SE,2.1
H04,2022,7,5,8,0,0.001,0.009,0.1,0.003,0.005,1,25.2,90.9,SE,2.3
H04,2022,7,5,9,0,0.006,0.01,0.1,0.002,0.006,1,25.1,96.4,SSE,1.9
H04,2022,7,5,10,0,0.006,0.008,0.2,0.006,0.009,2,25.5,93.8,SE,1.7
H04,2022,7,5,11,0.001,0.005,0.009,0.1,0.004,0.006,2,26,90.8,SE,2.2
H04,2022,7,5,12,0,0.005,0.011,0.1,0.003,0.004,2,27.6,86.2,SSE,2
H04,2022,7,5,13,0,0.006,0.013,0.1,0.002,0.003,2,28.5,79.1,S,2.6
H04,2022,7,5,14,0,0.01,0.016,0.1,0.001,0.002,4,30.1,72.4,SE,2.4
H04,2022,7,5,15,0,0.007,0.02,0.1,0.001,0.002,4,30.2,64.8,SSE,2.2
H04,2022,7,5,16,0,0.008,0.022,0.1,0.001,0.002,2,30,68.6,SSE,1.8
H04,2022,7,5,17,0.001,0.008,0.019,0.1,0.001,0.002,1,30,63.6,SSE,2.2
H04,2022,7,5,18,0.001,0.005,0.018,0.1,0,0.002,3,28.5,76.8,SSE,1.4
H04,2022,7,5,19,0,0.004,0.016,0.1,0,0.004,1,28,82.6,SSE,0.9
H04,2022,7,5,20,0,0.007,0.015,0.1,0,0.004,3,27.6,84.3,S,0.4
H04,2022,7,5,21,0.001,0.005,0.012,0.1,0,0.006,3,27.2,88.6,WSW,0.3
H04,2022,7,5,22,0.001,0.007,0.007,0.1,0,0.008,1,26.7,91.4,S,0.3
H04,2022,7,5,23,0,0.01,0.005,0.2,0.001,0.008,4,26.4,93.6,CALM,0.2
H04,2022,7,5,24,0,0.011,0.003,0.2,0.001,0.007,4,26.1,93.4,WNW,0.6
H04,2022,7,6,1,0.001,0.014,0.001,0.2,0.002,0.008,4,25.8,94.7,ENE,0.5
H04,2022,7,6,2,0,0.014,0.001,0.2,0.004,0.009,5,25.7,95.3,CALM,0.2
H04,2022,7,6,3,0,0.015,0.001,0.1,0.001,0.007,4,25.6,95.4,CALM,0
H04,2022,7,6,4,0.001,0.011,0.001,0.1,0.002,0.009,4,25.4,94.6,N,0.3
H04,2022,7,6,5,0.001,0.011,0.001,0.1,0.002,0.008,4,25.2,95.2,CALM,0
H04,2022,7,6,6,0.001,0.01,0.002,0.1,0.004,0.007,3,25.8,91.7,CALM,0.2
H04,2022,7,6,7,0.001,0.012,0.004,0.2,0.008,0.007,4,27.5,82.4,CALM,0.1
H04,2022,7,6,8,0.001,0.013,0.007,0.2,0.008,0.007,4,28.4,76.4,NW,1.1
H04,2022,7,6,9,0.002,0.012,0.015,0.2,0.005,0.006,5,30.5,69.1,WNW,2
H04,2022,7,6,10,0.001,0.01,0.026,0.1,0.003,0.005,5,32.2,61.4,WNW,1.8
H04,2022,7,6,11,0.001,0.011,0.034,0.1,0.001,0.005,8,33,62.8,WNW,2.1
H04,2022,7,6,12,0.001,0.012,0.042,0.1,0.001,0.004,7,33.9,58.3,NW,1.6
H04,2022,7,6,13,0.001,0.013,0.047,0.1,0.001,0.004,6,34.1,57.1,WNW,1.9
H04,2022,7,6,14,0.001,0.016,0.048,0.1,0.001,0.004,9,34.7,56.2,WNW,2.3
H04,2022,7,6,15,0.001,0.02,0.047,0.1,0.001,0.004,10,36,46.6,NW,1.4
H04,2022,7,6,16,0.001,0.017,0.046,0.1,0.001,0.004,10,36.3,46.5,NW,1.5
H04,2022,7,6,17,0.001,0.014,0.039,0.1,0.001,0.004,8,29.5,62.4,SSE,3.1
H04,2022,7,6,18,0.001,0.01,0.029,0.1,0.001,0.006,6,25.2,90.7,E,3.3
H04,2022,7,6,19,0.001,0.009,0.039,0.1,0,0.004,5,24.8,98.6,E,1.1
H04,2022,7,6,20,0.001,0.005,0.033,0.2,0.001,0.008,3,24.5,92.3,NE,0.8
H04,2022,7,6,21,0,0.007,0.026,0.1,0.001,0.004,2,24.5,96.7,CALM,0.2
H04,2022,7,6,22,0.001,0.008,0.023,0.1,0,0.005,2,24.5,94.4,NNE,1.1
H04,2022,7,6,23,0.001,0.01,0.016,0.2,0,0.006,4,24.1,97.3,CALM,0.2
H04,2022,7,6,24,0.001,0.01,0.011,0.1,0,0.005,4,23.7,97.7,NNW,0.3
H04,2022,7,7,1,0,0.012,0.008,0.1,0,0.005,3,24,97.9,ESE,0.4
H04,2022,7,7,2,0,0.013,0.006,0.1,0,0.006,4,24,97.3,ESE,0.6
H04,2022,7,7,3,0.001,0.011,0.005,0.1,0,0.004,5,24.5,94.6,E,0.4
H04,2022,7,7,4,0.001,0.015,0.003,0.1,0,0.006,6,23.7,97.3,CALM,0
H04,2022,7,7,5,0.001,0.015,0.001,0.2,0.001,0.006,3,23.8,97.6,CALM,0.2
H04,2022,7,7,6,0,0.016,0.002,0.2,0.004,0.008,5,24.6,92.6,E,0.6
H04,2022,7,7,7,0.001,0.016,0.003,0.2,0.007,0.008,5,25.4,89.8,NE,0.5
H04,2022,7,7,8,0.001,0.015,0.006,0.2,0.007,0.008,5,26,87.8,ENE,1
H04,2022,7,7,9,0.001,0.019,0.008,0.2,0.005,0.008,8,27.4,82.3,SE,0.8
H04,2022,7,7,10,0.001,0.022,0.015,0.2,0.005,0.007,8,28.9,71.4,SE,0.9
H04,2022,7,7,11,0.001,0.023,0.03,0.2,0.003,0.008,9,30.2,68,W,0.5
H04,2022,7,7,12,0.001,0.023,0.046,0.2,0.001,0.007,14,31.7,59.6,SSE,1.3
H04,2022,7,7,13,0.001,0.026,0.062,0.2,0.001,0.006,16,33.2,61.2,SW,1
H04,2022,7,7,14,0.001,0.03,0.073,0.3,0.001,0.008,16,33.9,55.8,S,2
H04,2022,7,7,15,0.002,0.03,0.084,0.3,0.001,0.009,21,33.4,56.6,SSW,2.5
H04,2022,7,7,16,0.001,0.023,0.056,0.2,0.001,0.005,10,32.4,57.8,S,2.4
H04,2022,7,7,17,0.001,0.016,0.045,0.1,0.001,0.004,7,30.9,65.8,SSE,2.9
H04,2022,7,7,18,0.001,0.013,0.038,0.1,0.001,0.004,8,29.1,75.4,SSE,2.8
H04,2022,7,7,19,0.001,0.012,0.038,0.1,0,0.003,5,28.2,79.9,SSE,2.2
H04,2022,7,7,20,0.001,0.01,0.037,0.1,0,0.003,5,27.6,82.7,SSE,2.3
H04,2022,7,7,21,0.001,0.012,0.035,0.1,0,0.003,5,27.5,84.4,SSE,1.8
H04,2022,7,7,22,0,0.013,0.038,0.1,0,0.003,5,27.3,85,SSE,1.3
H04,2022,7,7,23,0.001,0.014,0.038,0.1,0,0.003,5,27.2,86.4,SSE,1.3
H04,2022,7,7,24,0.001,0.013,0.038,0.1,0,0.003,6,27.2,86.3,SSE,1.1
H04,2022,7,8,1,0.001,0.013,0.038,0.1,0,0.004,8,26.9,88.2,SW,0.7
H04,2022,7,8,2,0.001,0.013,0.036,0.1,0,0.004,7,26.7,88.3,SSE,1.1
H04,2022,7,8,3,0.001,0.013,0.033,0.1,0,0.004,5,26.4,90.7,SE,0.8
H04,2022,7,8,4,0.001,0.014,0.025,0.1,0,0.004,5,26.3,91,ESE,0.6
H04,2022,7,8,5,0.001,0.013,0.019,0.1,0,0.005,6,26.1,91.1,ESE,0.6
H04,2022,7,8,6,0.001,0.012,0.019,0.1,0.001,0.006,5,26.9,81.6,E,1.1
H04,2022,7,8,7,0.001,0.016,0.021,0.1,0.001,0.006,6,27.4,81.2,ESE,1.1
H04,2022,7,8,8,0.001,0.016,0.022,0.2,0.002,0.006,7,29,76.8,SSW,1
H04,2022,7,8,9,0.001,0.019,0.025,0.2,0.003,0.007,9,29.7,71.2,ESE,0.8
H04,2022,7,8,10,0.001,0.016,0.037,0.2,0.002,0.006,11,31.3,61.7,ENE,0.7
H04,2022,7,8,11,0.001,0.018,0.053,0.2,0.001,0.005,11,32.3,57.7,ENE,1.1
H04,2022,7,8,12,0.001,0.016,0.065,0.2,0,0.004,11,33.4,52.7,SSW,1.1
H04,2022,7,8,13,0.001,0.033,0.073,0.2,0.002,0.009,18,32.7,60.2,SSE,2.1
H04,2022,7,8,14,0.001,0.032,0.07,0.2,0,0.005,15,33.1,62.5,SSW,2.4
H04,2022,7,8,15,0.002,0.02,0.062,0.2,0,0.005,13,31.4,65.1,SSW,1.6
H04,2022,7,8,16,0.001,0.018,0.051,0.2,0,0.004,11,31.7,63.8,SSW,2.1
H04,2022,7,8,17,0.001,0.016,0.047,0.1,0.001,0.003,10,31.1,63.3,S,2.1
H04,2022,7,8,18,0.001,0.016,0.045,0.1,0,0.003,8,29.6,68.2,SSE,2.5
H04,2022,7,8,19,0.001,0.016,0.042,0.1,0,0.003,9,28.6,78.7,SSE,1.7
H04,2022,7,8,20,0.001,0.013,0.033,0.1,0,0.004,6,28,85,SSE,1.4
H04,2022,7,8,21,0.001,0.014,0.027,0.1,0,0.004,6,27.8,86.1,SE,2
H04,2022,7,8,22,0,0.017,0.027,0.1,0,0.005,5,27.5,87,SE,1.8
H04,2022,7,8,23,0.001,0.018,0.026,0.1,0,0.005,7,27.6,87.5,SSE,1.9
H04,2022,7,8,24,0.001,0.018,0.024,0.1,0,0.006,7,27.2,87.8,SE,1.4
H04,2022,7,9,1,0.001,0.019,0.023,0.1,0,0.004,7,27.2,88.5,SE,0.9
H04,2022,7,9,2,0,0.018,0.021,0.1,0,0.004,8,27,87.6,ESE,1
H04,2022,7,9,3,0.001,0.018,0.018,0.1,0,0.004,8,25.7,92.6,CALM,0.1
H04,2022,7,9,4,0,0.021,0.011,0.1,0.001,0.005,7,26,95.6,SSE,0.5
H04,2022,7,9,5,0,0.021,0.011,0.2,0,0.005,7,26,93,SSE,0.3
H04,2022,7,9,6,0.001,0.021,0.009,0.2,0.001,0.005,9,26.6,89.3,CALM,0.1
H04,2022,7,9,7,0.001,0.022,0.012,0.2,0.001,0.004,9,28,81.3,S,0.5
H04,2022,7,9,8,0.001,0.018,0.02,0.1,0.001,0.005,7,30,65.7,SSE,0.6
H04,2022,7,9,9,0.001,0.012,0.035,0.1,0.001,0.003,6,30.6,62.3,SW,1.5
H04,2022,7,9,10,0.001,0.009,0.045,0.1,0.001,0.003,4,32,58.2,NE,0.6
H04,2022,7,9,11,0.001,0.011,0.051,0.1,0,0.003,8,32,65,WSW,1.1
H04,2022,7,9,12,0.001,0.015,0.051,0.2,0,0.003,11,33.2,63.4,WSW,1.5
H04,2022,7,9,13,0.001,0.021,0.054,0.2,0,0.002,10,32.1,64.6,S,2.6
H04,2022,7,9,14,0.001,0.019,0.044,0.1,0,0.002,9,31.3,69.6,SSW,2.5
H04,2022,7,9,15,0,0.016,0.038,0.1,0,0.002,9,31.3,64.5,S,2.5
H04,2022,7,9,16,0.001,0.02,0.04,0.1,0,0.002,10,28.2,91.7,S,1.3
H04,2022,7,9,17,0.001,0.018,0.033,0.1,0,0.003,9,28,91.6,S,1.1
H04,2022,7,9,18,0.001,0.016,0.024,0.1,0,0.003,6,27.6,93.2,SE,1
H04,2022,7,9,19,0,0.013,0.022,0.1,0,0.003,6,27.2,96.4,ESE,0.7
H04,2022,7,9,20,0.001,0.011,0.02,0.1,0,0.004,6,26.5,98.8,ESE,1.3
H04,2022,7,9,21,0.001,0.011,0.017,0.1,0,0.003,4,26.3,99,E,0.8
H04,2022,7,9,22,0.001,0.012,0.014,0.1,0,0.004,5,26.3,99.1,ESE,0.7
H04,2022,7,9,23,0,0.011,0.017,0.1,0,0.003,3,26.1,98.6,SE,1.3
H04,2022,7,9,24,0.001,0.011,0.017,0.1,0.001,0.003,3,25.4,99,E,1.7
H04,2022,7,10,1,0.001,0.007,0.018,0.1,0,0.001,3,25.2,98.1,SE,1.5
H04,2022,7,10,2,0.001,0.006,0.021,0.1,0,0.001,1,24.8,97.9,ESE,1.8
H04,2022,7,10,3,0,0.004,0.025,0.1,0,0.001,2,24,98.9,ESE,1.5
H04,2022,7,10,4,0.001,0.006,0.033,0.1,0,0.001,2,23.5,99.1,E,1.6
H04,2022,7,10,5,0,0.008,0.035,0.1,0,0.001,3,23.4,97.9,ESE,1.5
H04,2022,7,10,6,0,0.007,0.035,0.1,0,0.001,5,23.3,98.8,ESE,1.4
H04,2022,7,10,7,0,0.006,0.034,0.1,0,0.001,5,23.6,98.1,ESE,2
H04,2022,7,10,8,0,0.007,0.031,0.1,0,0.002,4,23.7,96.5,ESE,1.6
H04,2022,7,10,9,0,0.009,0.032,0.1,0,0.002,4,23.6,96.2,E,1.8
H04,2022,7,10,10,0.001,0.007,0.032,0.1,0,0.002,4,24.2,97.8,E,1.2
H04,2022,7,10,11,0.001,0.008,0.031,0.1,0.001,0.002,4,25.7,91,ESE,1.7
H04,2022,7,10,12,0,0.004,0.029,0.1,0.001,0.002,3,26.3,86.5,ESE,1
H04,2022,7,10,13,0,0.009,0.029,0.1,0,0.002,2,27.9,75.5,E,1.6
H04,2022,7,10,14,0,0.009,0.028,0.1,0.001,0.002,2,27.6,82,NNW,0.7
H04,2022,7,10,15,0.001,0.008,0.026,0.2,0,0.004,3,27,86.2,WNW,1.4
H04,2022,7,10,16,0.001,0.008,0.031,0.2,0.001,0.005,5,27.9,78.7,N,0.8
H04,2022,7,10,17,0,0.009,0.029,0.2,0,0.004,2,27.9,80.5,WNW,0.4
H04,2022,7,10,18,0.001,0.009,0.027,0.2,0.001,0.005,2,27.5,84.9,NNE,0.7
H04,2022,7,10,19,0,0.008,0.024,0.2,0.001,0.005,4,27.3,87.6,N,0.3
H04,2022,7,10,20,0,0.014,0.014,0.2,0.001,0.006,7,26.1,93.9,CALM,0
H04,2022,7,10,21,0,0.011,0.012,0.2,0,0.006,4,26.3,91.7,CALM,0.2
H04,2022,7,10,22,0.001,0.01,0.01,0.2,0.001,0.006,3,26.1,93.7,CALM,0.1
H04,2022,7,10,23,0.001,0.011,0.008,0.2,0,0.006,3,26.3,92.2,WNW,0.4
H04,2022,7,10,24,0,0.01,0.006,0.2,0.001,0.007,4,25.7,96,ENE,0.3
H04,2022,7,11,1,0.001,0.011,0.006,0.1,0,0.004,5,25.4,93.8,N,0.4
H04,2022,7,11,2,0.001,0.011,0.005,0.1,0,0.002,3,24.6,96.9,CALM,0.1
H04,2022,7,11,3,0,0.015,0.003,0.1,0,0.002,2,23.9,98.5,CALM,0.1
H04,2022,7,11,4,0.001,0.013,0.002,0.1,0.001,0.003,2,23.8,98.7,CALM,0
H04,2022,7,11,5,0.001,0.013,0.001,0.1,0.001,0.003,3,23.8,99,CALM,0
H04,2022,7,11,6,0,0.013,0.002,0.2,0.004,0.004,5,25.1,80.1,CALM,0.1
H04,2022,7,11,7,0.001,0.013,0.006,0.2,0.008,0.006,5,28,69.9,NNE,0.4
H04,2022,7,11,8,0.001,0.015,0.014,0.2,0.004,0.005,5,29.4,68.6,NNE,0.8
H04,2022,7,11,9,0,0.008,0.025,0.2,0.002,0.004,4,30.8,64.5,E,0.5
H04,2022,7,11,10,0.001,0.01,0.033,0.1,0.001,0.004,4,30.4,63.4,NNW,0.6
H04,2022,7,11,11,0.001,0.009,0.042,0.1,0.001,0.003,6,31.3,62.8,N,1
H04,2022,7,11,12,0,0.01,0.051,0.2,0.001,0.003,7,33.7,58.6,SSW,1.2
H04,2022,7,11,13,0.001,0.022,0.062,0.4,0.001,0.01,11,33.4,59.6,W,1.8
H04,2022,7,11,14,0.002,0.028,0.073,0.4,0.001,0.008,16,33.3,62.5,WSW,1.6
H04,2022,7,11,15,0.002,0.029,0.073,0.3,0,0.005,14,34.4,52.7,SSW,1.7
H04,2022,7,11,16,0.003,0.022,0.068,0.3,0.001,0.007,12,33.7,53.7,SSW,1.9
H04,2022,7,11,17,0.002,0.015,0.045,0.2,0.001,0.006,7,32.2,59.3,SW,1.8
H04,2022,7,11,18,0.001,0.011,0.035,0.1,0.001,0.005,5,31.1,64.7,S,1.5
H04,2022,7,11,19,0.001,0.009,0.033,0.1,0,0.004,5,29.6,75.4,S,1.6
H04,2022,7,11,20,0.001,0.008,0.028,0.1,0,0.005,5,28.8,81.1,SSE,1.5
H04,2022,7,11,21,0.001,0.012,0.025,0.1,0,0.006,4,28.3,80.9,SE,1.6
H04,2022,7,11,22,0,0.01,0.019,0.1,0,0.009,5,27.8,86,SE,1.4
H04,2022,7,11,23,0.001,0.011,0.02,0.1,0,0.007,4,27.5,88.4,SE,1.6
H04,2022,7,11,24,0.001,0.012,0.015,0.1,0,0.011,4,27.2,89.5,SE,1.3
H04,2022,7,12,1,***,0.012,0.016,***,***,***,4,27,91,SE,0.9
H04,2022,7,12,2,0.001,0.011,0.015,0.1,0,0.01,4,26.9,91.9,SE,0.7
H04,2022,7,12,3,0,0.013,0.014,0.1,0,0.012,5,26.8,91.4,ESE,1
H04,2022,7,12,4,0.001,0.01,0.018,0.1,0,0.006,3,26.9,90.4,ESE,0.7
H04,2022,7,12,5,0.001,0.01,0.017,0.1,0,0.006,3,26.7,90.1,ESE,0.7
H04,2022,7,12,6,0.001,0.013,0.012,0.1,0.001,0.007,4,26,96,SE,1.2
H04,2022,7,12,7,0.001,0.012,0.009,0.2,0.002,0.009,6,26.1,97.4,SE,0.9
H04,2022,7,12,8,0,0.011,0.013,0.1,0.002,0.008,3,26.3,95.3,SE,1.3
H04,2022,7,12,9,0,0.009,0.013,0.2,0.003,0.009,5,26.6,92.3,SE,2.2
H04,2022,7,12,10,0.001,0.006,0.014,0.2,0.005,0.01,3,26.6,90,SSE,2.2
H04,2022,7,12,11,0,0.007,0.018,0.1,0.002,0.006,3,25.7,92.7,SE,3.2
H04,2022,7,12,12,0.001,0.005,0.021,0.1,0.001,0.004,2,26.8,86.4,SE,2
H04,2022,7,12,13,0,0.006,0.019,0.1,0.002,0.006,2,27.8,84.9,SE,1.6
H04,2022,7,12,14,0.001,0.007,0.019,0.1,0.002,0.004,1,28,83.8,SE,2.2
H04,2022,7,12,15,0.001,0.009,0.019,0.2,0.002,0.008,4,27.6,86.8,SE,2.3
H04,2022,7,12,16,0,0.01,0.019,0.1,0.001,0.008,3,26.7,95.9,SE,1.1
H04,2022,7,12,17,0,0.009,0.017,0.1,0.001,0.008,4,26.7,95.4,SE,1.7
H04,2022,7,12,18,0,0.008,0.019,0.1,0.001,0.005,2,26.8,92.6,SE,1.2
H04,2022,7,12,19,0,0.008,0.017,0.1,0.001,0.006,3,26.6,95.7,SSE,0.9
H04,2022,7,12,20,0,0.008,0.01,0.2,0,0.012,3,26.3,97.2,SE,0.9
H04,2022,7,12,21,0.001,0.008,0.012,0.1,0,0.008,1,26.3,96.3,SE,1.1
H04,2022,7,12,22,0,0.008,0.011,0.1,0,0.007,2,26.3,96.8,ESE,0.5
H04,2022,7,12,23,0,0.011,0.007,0.2,0.001,0.008,3,26.1,97.4,CALM,0.2
H04,2022,7,12,24,0,0.009,0.009,0.2,0.001,0.007,2,25.8,97.9,N,0.5
H04,2022,7,13,1,0,0.009,0.016,0.1,0,0.005,4,25.4,99,ENE,0.4
H04,2022,7,13,2,0.001,0.009,0.011,0.1,0,0.005,2,25.1,99,CALM,0.2
H04,2022,7,13,3,0.001,0.01,0.007,0.2,0.001,0.007,3,24.8,99,W,0.5
H04,2022,7,13,4,0.001,0.009,0.004,0.2,0.001,0.008,5,24.8,99,WNW,0.5
H04,2022,7,13,5,0.001,0.014,0.006,0.2,0,0.01,3,25.1,99,CALM,0.2
H04,2022,7,13,6,0,0.014,0.007,0.2,0.002,0.01,4,25.5,96.6,CALM,0.1
H04,2022,7,13,7,0.001,0.016,0.01,0.2,0.005,0.008,6,26.3,82.1,NNE,1.1
H04,2022,7,13,8,0,0.015,0.017,0.2,0.004,0.006,7,28.2,75.3,NNW,1.2
H04,2022,7,13,9,0.001,0.014,0.025,0.2,0.003,0.006,4,29.7,65.9,NNW,1
H04,2022,7,13,10,0.001,0.007,0.036,0.2,0.003,0.006,4,31.4,63.2,NNW,1.3
H04,2022,7,13,11,0.001,0.009,0.045,0.2,0.002,0.004,5,32.4,56.5,N,1.3
H04,2022,7,13,12,0.001,0.006,0.051,0.2,0.001,0.003,7,32.9,54.6,NW,1.5
H04,2022,7,13,13,0.001,0.008,0.051,0.1,0,0.003,4,33.6,52.4,W,1.7
H04,2022,7,13,14,0.001,0.006,0.047,0.1,0.001,0.003,4,33,52.7,WNW,1.5
H04,2022,7,13,15,0.001,0.008,0.047,0.1,0.001,0.003,5,34.2,47.7,W,2.8
H04,2022,7,13,16,0.001,0.009,0.049,0.1,0,0.002,3,34.4,42.6,WNW,1.5
H04,2022,7,13,17,0.001,0.009,0.046,0.1,0,0.003,8,33.2,48,NW,1.4
H04,2022,7,13,18,0.001,0.013,0.041,0.1,0,0.003,8,31.7,59.2,NW,1.8
H04,2022,7,13,19,0.001,0.009,0.036,0.2,0,0.005,6,30.3,65.7,WNW,1.2
H04,2022,7,13,20,0.001,0.008,0.031,0.2,0,0.004,4,29.6,67,WNW,1.9
H04,2022,7,13,21,0.001,0.008,0.029,0.2,0,0.004,5,28.7,70.6,W,0.9
H04,2022,7,13,22,0.001,0.008,0.028,0.1,0,0.004,4,28.3,72,NNW,0.5
H04,2022,7,13,23,0,0.008,0.021,0.2,0,0.004,5,26.4,85.8,CALM,0
H04,2022,7,13,24,0.001,0.01,0.017,0.2,0,0.004,4,26.1,87.4,CALM,0
H04,2022,7,14,1,0,0.012,0.015,0.2,0,0.004,7,25.7,89.2,WNW,0.6
H04,2022,7,14,2,0.001,0.011,0.013,0.2,0,0.004,5,25.7,91.2,CALM,0.2
H04,2022,7,14,3,0,0.015,0.009,0.2,0,0.006,5,25.8,93.2,WNW,0.5
H04,2022,7,14,4,0,0.015,0.006,0.2,0.001,0.008,5,25.4,93.4,NNW,0.4
H04,2022,7,14,5,0,0.015,0.005,0.2,0.001,0.009,5,25.1,94.5,NW,0.3
H04,2022,7,14,6,0,0.016,0.004,0.2,0.002,0.007,6,25.7,91.6,E,0.4
H04,2022,7,14,7,0.001,0.019,0.007,0.2,0.007,0.009,7,28.7,75.4,E,1.2
H04,2022,7,14,8,0.001,0.023,0.014,0.2,0.004,0.012,10,28.5,77.7,S,0.6
H04,2022,7,14,9,0.001,0.019,0.025,0.2,0.002,0.009,11,30,72.2,S,1.2
H04,2022,7,14,10,0.001,0.019,0.033,0.2,0.001,0.007,8,30.4,69.4,S,1.1
H04,2022,7,14,11,0.001,0.015,0.041,0.2,0,0.006,10,29,78.4,SW,1.2
H04,2022,7,14,12,0.001,0.019,0.043,0.2,0,0.008,11,30,73.3,SW,1.6
H04,2022,7,14,13,0.001,0.02,0.048,0.2,0.001,0.007,9,30.3,69.5,SSW,1.4
H04,2022,7,14,14,0.001,0.012,0.043,0.2,0.001,0.005,7,29.3,74.1,SW,1.8
H04,2022,7,14,15,0.001,0.01,0.04,0.2,0,0.005,6,28.6,78.7,S,1.4
H04,2022,7,14,16,0.001,0.01,0.037,0.2,0,0.005,5,27.8,89.6,SSE,1.2
H04,2022,7,14,17,0.001,0.012,0.033,0.2,0,0.008,6,27.3,93.8,SE,1.1
H04,2022,7,14,18,0.001,0.013,0.028,0.2,0.007,0.014,5,26.8,96.1,SE,1.3
H04,2022,7,14,19,0.001,0.014,0.03,0.2,0,0.009,5,26.6,97.9,SE,0.7
H04,2022,7,14,20,0,0.015,0.023,0.2,0,0.009,5,26.1,99,ESE,1
H04,2022,7,14,21,0,0.014,0.026,0.2,0,0.005,5,25.5,99,ESE,1.6
H04,2022,7,14,22,0,0.011,0.027,0.2,0,0.004,5,24.9,99,NNE,1.3
H04,2022,7,14,23,0,0.008,0.032,0.1,0,0.003,4,24.7,99,ESE,0.3
H04,2022,7,14,24,0,0.005,0.039,0.1,0,0.002,5,24.8,99.1,SE,1.2
H04,2022,7,15,1,0,0.007,0.035,0.1,0,0.006,3,24.8,99.1,SE,1.8
H04,2022,7,15,2,0.001,0.008,0.033,0.1,0,0.005,5,24.9,99,SE,1.8
H04,2022,7,15,3,0.001,0.008,0.028,0.1,0,0.009,3,24.8,99,SE,1.5
H04,2022,7,15,4,0,0.007,0.034,0.1,0,0.003,3,24.8,99,SE,1.3
H04,2022,7,15,5,0.001,0.008,0.028,0.2,0,0.005,2,25.1,99.1,SE,0.9
H04,2022,7,15,6,0,0.01,0.023,0.2,0,0.007,3,25.2,99,SE,0.7
H04,2022,7,15,7,0.001,0.01,0.021,0.2,0.001,0.009,4,25.7,94.6,SE,1
H04,2022,7,15,8,0.001,0.009,0.02,0.2,0.001,0.008,4,26,94.9,SSE,0.7
H04,2022,7,15,9,0.001,0.012,0.02,0.2,0.001,0.012,4,26.1,93.5,SE,1.1
H04,2022,7,15,10,0,0.013,0.026,0.2,0.002,0.01,5,27.3,86.8,SE,0.3
H04,2022,7,15,11,0.001,0.013,0.026,0.2,0.003,0.011,7,28.3,82.2,SSW,0.9
H04,2022,7,15,12,0.001,0.013,0.026,0.2,0.001,0.012,5,26.3,97.6,W,2.1
H04,2022,7,15,13,0,0.009,0.029,0.2,0.001,0.009,6,26.9,88.9,W,0.4
H04,2022,7,15,14,0.001,0.011,0.035,0.2,0.002,0.007,4,28.3,83.6,NNE,0.7
H04,2022,7,15,15,0.001,0.011,0.036,0.2,0.002,0.009,6,28.3,84.9,NNE,0.7
H04,2022,7,15,16,0.001,0.01,0.038,0.2,0.002,0.009,5,30,69.6,WNW,0.5
H04,2022,7,15,17,0.001,0.009,0.043,0.2,0.001,0.006,3,29.5,74.4,NE,0.3
H04,2022,7,15,18,0.001,0.01,0.04,0.2,0.001,0.008,6,28.7,83.5,WNW,1.1
H04,2022,7,15,19,0,0.011,0.032,0.2,0,0.009,6,27.8,90.2,WNW,0.5
H04,2022,7,15,20,0,0.019,0.024,0.4,0.001,0.021,10,27.6,92,N,0.4
H04,2022,7,15,21,0.001,0.026,0.017,0.4,0.001,0.019,12,27.2,94.7,N,0.5
H04,2022,7,15,22,0,0.028,0.012,0.4,0.001,0.017,12,27.2,93.8,WNW,0.5
H04,2022,7,15,23,0.001,0.029,0.013,0.4,0.001,0.019,11,27.2,94,SE,0.4
H04,2022,7,15,24,0.001,0.025,0.01,0.3,0,0.019,10,26.9,96.4,SSE,0.8
H04,2022,7,16,1,0.001,0.011,0.018,0.2,0,0.009,4,26.3,98.8,CALM,0.1
H04,2022,7,16,2,0,0.012,0.012,0.2,0,0.008,4,26.3,99,ENE,0.8
H04,2022,7,16,3,0.001,0.009,0.029,0.2,0,0.007,3,25.1,91.1,ENE,1.7
H04,2022,7,16,4,0,0.009,0.04,0.2,0.001,0.003,4,24.6,93.7,NE,0.6
H04,2022,7,16,5,0.001,0.014,0.027,0.2,0,0.004,6,24.6,98.3,ENE,0.9
H04,2022,7,16,6,0.001,0.014,0.018,0.2,0.001,0.006,4,24.9,96.3,E,0.3
H04,2022,7,16,7,0,0.013,0.021,0.2,0.001,0.006,5,25.4,86.7,ENE,0.9
H04,2022,7,16,8,0.001,0.012,0.023,0.2,0.001,0.005,5,26.7,81.1,E,0.9
H04,2022,7,16,9,0.001,0.013,0.025,0.2,0.001,0.005,7,28.2,76.5,ESE,0.5
H04,2022,7,16,10,0.001,0.014,0.026,0.2,0.001,0.004,5,28.7,76.2,SE,1.1
H04,2022,7,16,11,0.001,0.012,0.027,0.2,0.001,0.005,5,29,78.1,SSE,1.5
H04,2022,7,16,12,0.001,0.013,0.035,0.2,0.001,0.003,6,28.8,79.9,S,2.9
H04,2022,7,16,13,0.001,0.008,0.042,0.1,0.001,0.002,4,29,73.7,SSE,2.8
H04,2022,7,16,14,0.001,0.006,0.037,0.1,0,0.002,1,28.3,82.3,SE,2.1
H04,2022,7,16,15,0.001,0.006,0.034,0.1,0,0.002,3,27.5,87.9,SSE,1.7
H04,2022,7,16,16,0.001,0.004,0.03,0.1,0,0.004,3,27.5,87.9,SSE,1.7
H04,2022,7,16,17,0,0.007,0.029,0.1,0,0.002,3,27.3,89.5,SSE,2.1
H04,2022,7,16,18,0,0.009,0.026,0.1,0,0.003,4,26.6,94.3,SE,1.5
H04,2022,7,16,19,0.001,0.009,0.023,0.1,0,0.004,4,26.3,98.3,ESE,1
H04,2022,7,16,20,0.001,0.007,0.022,0.1,0,0.005,2,26.6,99,SSE,2
H04,2022,7,16,21,0,0.01,0.034,0.1,0,0.002,2,26.6,98.6,SE,1.1
H04,2022,7,16,22,0,0.01,0.037,0.1,0,0.002,2,25.8,96.5,SE,1.3
H04,2022,7,16,23,0.001,0.012,0.038,0.1,0,0.004,3,25.7,97.9,ESE,1
H04,2022,7,16,24,0.001,0.01,0.038,0.1,0,0.003,3,25.7,95.3,SE,1.5
H04,2022,7,17,1,0,0.014,0.043,0.1,0,0.003,4,25.7,94.7,SE,0.8
H04,2022,7,17,2,0.001,0.013,0.044,0.1,0,0.003,4,25.6,96.1,CALM,0.1
H04,2022,7,17,3,0,0.012,0.043,0.1,0,0.002,4,25.4,98.9,CALM,0
H04,2022,7,17,4,0.001,0.009,0.041,0.1,0,0.003,3,25.4,99.1,S,0.6
H04,2022,7,17,5,0.001,0.006,0.048,0.1,0,0.003,2,25.1,98.3,SE,2
H04,2022,7,17,6,0,0.004,0.043,0.1,0,0.004,1,25.4,94.9,SE,1.6
H04,2022,7,17,7,0.001,0.002,0.042,0.1,0,0.003,1,25.8,93.1,SE,0.9
H04,2022,7,17,8,0,0.003,0.042,0.1,0,0.003,2,26.1,93.6,W,0.5
H04,2022,7,17,9,0.001,0.003,0.045,0.1,0,0.003,2,28.2,82.5,WNW,0.7
H04,2022,7,17,10,0.001,0.011,0.053,0.1,0,0.002,2,30.1,75.8,WNW,0.5
H04,2022,7,17,11,0.001,0.006,0.053,0.2,0,0.003,6,30.4,78.7,WNW,1.8
H04,2022,7,17,12,0.001,0.014,0.062,0.2,0.001,0.004,6,30.9,70.7,NNE,0.7
H04,2022,7,17,13,0.001,0.015,0.068,0.2,0,0.004,10,32.7,61.7,NNE,0.8
H04,2022,7,17,14,0.001,0.016,0.067,0.2,0,0.003,7,34.3,54.5,SW,0.7
H04,2022,7,17,15,0.001,0.014,0.068,0.2,0,0.003,8,33.5,56.5,NE,1.2
H04,2022,7,17,16,0.001,0.011,0.064,0.2,0,0.003,5,32.9,60.5,NE,1.3
H04,2022,7,17,17,0.001,0.017,0.059,0.2,0,0.003,11,30.1,72.8,SSW,1.1
H04,2022,7,17,18,0.001,0.015,0.056,0.2,0,0.004,8,29.6,76.1,S,1.4
H04,2022,7,17,19,0.001,0.015,0.051,0.2,0,0.007,8,29,87.3,SSE,1
H04,2022,7,17,20,0,0.017,0.043,0.3,0,0.008,9,27.6,95.2,CALM,0
H04,2022,7,17,21,0.001,0.019,0.028,0.3,0,0.008,9,27.3,96.2,CALM,0.1
H04,2022,7,17,22,0,0.019,0.026,0.3,0,0.008,7,27.5,96.8,CALM,0
H04,2022,7,17,23,0.001,0.021,0.021,0.3,0,0.007,8,26.6,97.5,CALM,0
H04,2022,7,17,24,0,0.022,0.017,0.3,0,0.007,8,26.6,96.9,ENE,0.5
H04,2022,7,18,1,0.001,0.02,0.018,0.3,0,0.004,9,25.7,95.2,CALM,0.2
H04,2022,7,18,2,0,0.021,0.011,0.3,0,0.004,9,25.1,97.3,CALM,0
H04,2022,7,18,3,0.001,0.021,0.008,0.3,0,0.004,8,25.2,97.6,NE,0.3
H04,2022,7,18,4,0,0.02,0.009,0.3,0,0.004,9,25.2,96.5,W,0.3
H04,2022,7,18,5,0,0.019,0.011,0.3,0,0.005,8,25.2,92.4,E,0.6
H04,2022,7,18,6,0,0.019,0.01,0.2,0,0.005,8,25.5,95,ESE,0.7
H04,2022,7,18,7,0,0.02,0.006,0.2,0.002,0.005,9,26.4,87.4,SSE,0.7
H04,2022,7,18,8,0,0.018,0.01,0.3,0.002,0.005,9,27.2,84.4,ESE,0.6
H04,2022,7,18,9,0.001,0.024,0.016,0.3,0.005,0.01,13,29.4,70.7,SW,0.5
H04,2022,7,18,10,0.003,0.029,0.034,0.7,0.004,0.015,16,31.4,68.7,SW,1.2
H04,2022,7,18,11,0.003,0.027,0.049,0.7,0.004,0.018,15,32.1,59.2,E,1
H04,2022,7,18,12,0.002,0.026,0.073,0.3,0.001,0.009,15,32.1,59.5,WNW,1.1
H04,2022,7,18,13,0.001,0.028,0.08,0.3,0.001,0.006,19,33,58.4,W,1.1
H04,2022,7,18,14,0.001,0.026,0.081,0.3,0,0.005,18,33.6,56.8,WSW,0.7
H04,2022,7,18,15,0.001,0.027,0.076,0.3,0,0.004,16,34.4,54.1,W,1.5
H04,2022,7,18,16,0.001,0.026,0.076,0.2,0,0.004,15,34.2,50.9,WSW,0.9
H04,2022,7,18,17,0.001,0.017,0.076,0.3,0,0.004,16,33,58.4,SW,0.4
H04,2022,7,18,18,0.001,0.026,0.06,0.3,0,0.006,16,31.3,69.1,SSW,1.1
H04,2022,7,18,19,0.001,0.025,0.053,0.2,0,0.006,15,30.8,72.3,SSE,1.2
H04,2022,7,18,20,0.001,0.022,0.045,0.2,0,0.007,12,30,74.9,SSE,1.5
H04,2022,7,18,21,0.001,0.022,0.041,0.2,0,0.009,12,29.7,76.1,SE,1.8
H04,2022,7,18,22,0.001,0.023,0.039,0.2,0,0.009,14,29.2,79.5,SE,1.1
H04,2022,7,18,23,0.001,0.023,0.039,0.2,0,0.006,15,29,81.5,SE,1.5
H04,2022,7,18,24,0.001,0.027,0.032,0.2,0,0.008,14,28.7,85.7,SE,1.3
H04,2022,7,19,1,***,0.028,0.027,***,***,***,11,28.3,91.2,SSE,1.4
H04,2022,7,19,2,0,0.024,0.024,0.1,0,0.005,8,28,93.4,SE,1.2
H04,2022,7,19,3,0,0.024,0.02,0.1,0,0.005,6,28.1,96,SE,1.2
H04,2022,7,19,4,0.001,0.02,0.016,0.2,0,0.005,7,27.5,95.2,SE,1.7
H04,2022,7,19,5,0.001,0.024,0.012,0.2,0,0.005,10,27.5,97.8,ESE,0.8
H04,2022,7,19,6,0.001,0.021,0.005,0.2,0.001,0.01,6,28.1,99.1,SE,1.6
H04,2022,7,19,7,0,0.011,0.01,0.1,0.001,0.008,2,27.8,98.6,SSE,1.7
H04,2022,7,19,8,0,0.01,0.014,0.2,0.001,0.008,4,27.6,98.9,SE,1.7
H04,2022,7,19,9,0.001,0.011,0.013,0.2,0.002,0.008,4,28.3,97.9,SE,1.5
H04,2022,7,19,10,0.001,0.013,0.011,0.2,0.004,0.009,4,29,95.4,SE,2.1
H04,2022,7,19,11,0.001,0.015,0.011,0.1,0.003,0.008,4,29.3,95.8,SE,1.5
H04,2022,7,19,12,0.001,0.014,0.011,0.1,0.003,0.008,4,29.1,97.3,SE,1.7
H04,2022,7,19,13,0,0.014,0.012,0.1,0.001,0.008,3,28.8,99,SSW,0.5
H04,2022,7,19,14,0.001,0.012,0.013,0.1,0.002,0.006,5,28.8,99,NE,0.5
H04,2022,7,19,15,0,0.013,0.012,0.1,0.002,0.008,3,28.7,98.5,SE,1
H04,2022,7,19,16,0,0.011,0.015,0.2,0.003,0.012,3,28.9,96.3,SE,2.1
H04,2022,7,19,17,0,0.011,0.012,0.2,0.003,0.011,3,29.2,94.1,SSE,1
H04,2022,7,19,18,0.001,0.011,0.014,0.2,0.001,0.013,4,29,93.4,SSE,1.6